Skip Page Navigation
NASA JPL Caltech
NASA Logo - Jet Propulsion Laboratory + View the NASA Portal
+ Center for Near-Earth Object Studies
JPL Home Earth Solar System Stars & Galaxies Technology
JPL Solar System Dynamics
BODIES ORBITS EPHEMERIDES TOOLS PHYSICAL DATA DISCOVERY FAQ SITE MAP
JPL Small-Body Database Browser
Search: [ help ]  
180064 (2003 BP78)
Classification: Main-belt Asteroid          SPK-ID: 2180064
Ephemeris | Orbit Diagram | Orbital Elements | Mission Design | Physical Parameters | Discovery Circumstances | Close-Approach Data ]

[ show orbit diagram ]
Orbital Elements at Epoch 2459200.5 (2020-Dec-17.0) TDB
Reference: JPL 19 (heliocentric ecliptic J2000)
 Element Value Uncertainty (1-sigma)   Units 
e .1425318841747789 4.5992e-08  
a 2.696462158603071 1.6006e-08 au
q 2.312130326531384 1.2609e-07 au
i 7.800680171983664 5.1215e-06 deg
node 351.4736747857094 2.6993e-05 deg
peri 233.7214758545099 3.1294e-05 deg
M 284.2780294331038 1.7067e-05 deg
tp 2459540.680432014402
(2021-Nov-22.18043201)
7.7514e-05 TDB
period 1617.297524197334
4.43
1.44e-05
3.943e-08
d
yr
n .2225935516587575 1.982e-09 deg/d
Q 3.080793990674758 1.8288e-08 au
  Orbit Determination Parameters
   # obs. used (total)      608  
   data-arc span      8064 days (22.08 yr)  
   first obs. used      1999-03-20  
   last obs. used      2021-04-17  
   planetary ephem.      DE441  
   SB-pert. ephem.      SB441-N16  
   condition code      0  
   norm. resid. RMS      .54796  
   source      ORB  
   producer      Otto Matic  
   solution date      2021-May-04 10:08:21  

Additional Information
 Earth MOID = 1.31286 au 
 Jupiter MOID = 1.94459 au 
 T_jup = 3.342 
[ show covariance matrix ]

Ephemeris | Orbit Diagram | Orbital Elements | Mission Design | Physical Parameters | Discovery Circumstances | Close-Approach Data ]

Physical Parameter Table
Parameter Symbol Value Units Sigma Reference Notes
absolute magnitude H 15.49   n/a MPCxxxxx  

180064 (2003 BP78)          Discovered 2003-Jan-31 by LINEAR at Socorro
Reference: 20080321/Numbers.arcLast Updated: 2008-03-26

[ hide close-approach data ]
Close-Approach Data   ...sorted by Date/Time (TDB)
Date/Time (TDB) Time Uncertainty
(days_HH:MM)
Body Nominal Distance (au) Minimum Distance (au) Maximum Distance (au) V-relative (km/s) V-infinity (km/s) JD (TDB) Time Uncertainty (minutes) Semi-major axis (km) Semi-minor axis (km) range-LOV angle (deg) N-sigma BP Orbit Ref. Reference Modified
2024-Feb-27 01:56 < 00:01 Jupiter 1.99031434191359 1.99031390816163 1.99031477566556 2.30139767424624 2.10838487871494 2460367.580841131 0.251618363487582 53.2807167057059 7.73735207959658 -76.4069531815233 2519077.15144933 T 19 CATAB v2.0g-lin.ifort 2021-May-04 10:08:23 2021-May-04 10:08
2059-Jun-17 23:58 00:01 Jupiter 1.9559012846781 1.9559008313548 1.95590173800152 2.39042096013711 2.20181572074335 2473262.498426030 1.11206580008042 61.339602584519 20.2531296938356 -82.4529859168939 2321308.65563217 T 19 CATAB v2.0g-lin.ifort 2021-May-04 10:08:23 2021-May-04 10:08
2094-Oct-11 18:15 00:02 Jupiter 1.94744418795054 1.94744375744046 1.94744461846073 2.57061874086627 2.39545393280945 2486162.260467822 2.01999755854515 114.074659676496 22.2930406589652 84.1895855261163 2372651.07237969 T 19 CATAB v2.0g-lin.ifort 2021-May-04 10:08:23 2021-May-04 10:08
2130-Feb-05 05:21 00:03 Jupiter 1.94924963792814 1.94924911708161 1.94925015878009 2.79385190531976 2.63372986668011 2499061.722615920 2.94676070122732 246.768916445244 16.0082435165338 88.3603395107457 2588798.61766576 T 19 CATAB v2.0g-lin.ifort 2021-May-04 10:08:23 2021-May-04 10:08
2165-May-31 14:19 00:04 Jupiter 1.98171817223025 1.98171717973558 1.98171916474666 3.08194852078218 2.93999492972491 2511961.096467326 3.88549016394574 371.306186103113 15.5858834348378 -87.1225856582867 2796278.37730893 T 19 CATAB v2.0g-lin.ifort 2021-May-04 10:08:23 2021-May-04 10:08

Alternate Designations
 2003 BP78 = 1999 FZ41 
Ephemeris | Orbit Diagram | Orbital Elements | Mission Design | Physical Parameters | Discovery Circumstances | Close-Approach Data ]
ABOUT SSD CREDITS/AWARDS PRIVACY/COPYRIGHT GLOSSARY LINKS
FirstGov 2021-May-16 13:37 UT
(server date/time)  
NASA Home Page
Site Manager:   Ryan S. Park
Webmaster  Alan B. Chamberlin